#datint,netname,site,siteID,timestamp,IntT,BattV,AirT2,AirT,AirT_Avg,AirT_Max,AirT_Min,RH_Avg,RH_Max,RH_Min,EA_Avg,Td_Avg,Td_Max,Td_Min,WindS_Smp,WindS_Avg,WindD_Avg,WindD_SD,WindS_Max,ETo,ETr,SoilT4,SoilT8,SoilVWC8,SolarW_Avg,wetstate_Avg,wetT_Avg,Precip_accum,Precip_WPG,Precip_TB
15min,AgWx,beryljct,423,25APR2019:00:00:00,50.7,12.95,51.7,50.8,49.6,51.1,47.9,66,72,63,0.797,38.8,39.5,38.1,1.973,2.9,319,20,4.7,-0.00005,-0.00004,58.0,55.8,10,0,0,47.6,13.66,0.00,0.00
15min,AgWx,beryljct,423,25APR2019:00:15:00,50.3,12.94,53.3,52.3,50.2,52.3,48.9,64,66,60,0.799,38.4,39.0,37.8,6.971,4.6,23,15,7.0,0.00006,0.00010,57.7,55.8,10,0,0,48.6,13.66,0.00,0.00
15min,AgWx,beryljct,423,25APR2019:00:30:00,50.5,12.93,49.5,49.7,51.5,53.5,49.6,62,68,57,0.825,38.9,39.6,38.4,5.108,5.7,27,15,8.0,0.00013,0.00019,57.5,55.8,10,0,0,50.1,13.66,0.00,0.00
15min,AgWx,beryljct,423,25APR2019:00:45:00,50.8,12.93,52.5,52.7,51.3,52.7,49.5,70,72,68,0.945,42.0,43.1,39.6,7.629,8.6,55,11,13.1,0.00015,0.00020,57.3,55.7,10,0,0,50.2,13.66,0.00,0.00
15min,AgWx,beryljct,423,25APR2019:01:00:00,51.4,12.9,51.2,52.0,52.3,52.7,51.9,71,72,70,0.952,43.2,43.4,43.0,4.735,7.9,57,8.2,12.0,0.00013,0.00018,57.1,55.7,10,0,0,51.1,13.66,0.00,0.00
15min,AgWx,beryljct,423,25APR2019:01:15:00,51.5,12.92,50.1,49.7,51.0,51.9,49.7,75,78,72,0.946,43.2,43.4,43.1,4.669,5.0,60,11,7.4,0.00001,0.00004,56.9,55.7,10,0,0,49.6,13.66,0.00,0.00
15min,AgWx,beryljct,423,25APR2019:01:30:00,51.0,12.91,50.3,50.0,49.6,50.0,49.4,78,79,76,0.936,43.1,43.2,42.8,0.899,2.7,48,16,5.7,-0.00011,-0.00013,56.7,55.7,10,0,0,47.7,13.66,0.00,0.00
15min,AgWx,beryljct,423,25APR2019:01:45:00,50.3,12.9,47.6,47.5,49.1,50.1,47.2,77,81,76,0.900,42.2,42.9,41.1,1.381,0.8,314,56,2.7,-0.00024,-0.00035,56.5,55.6,10,0,0,46.1,13.67,0.01,0.00
15min,AgWx,beryljct,423,25APR2019:02:00:00,49.4,12.9,48.1,48.4,47.8,49.0,46.6,80,83,77,0.894,42.0,42.8,40.9,2.192,1.5,233,15,2.4,-0.00019,-0.00025,56.3,55.6,10,0,0,45.3,13.66,0.00,0.00
15min,AgWx,beryljct,423,25APR2019:02:15:00,48.7,12.9,48.0,48.3,48.4,49.3,47.5,79,81,77,0.909,42.1,42.9,41.1,2.784,2.0,208,6.2,3.2,-0.00015,-0.00020,56.1,55.5,10,0,0,45.8,13.66,0.00,0.00
15min,AgWx,beryljct,423,25APR2019:02:30:00,48.2,12.89,45.1,45.6,46.8,48.5,45.6,81,84,77,0.842,41.2,42.8,39.8,2.477,2.8,205,10,3.6,-0.00011,-0.00013,55.9,55.5,10,0,0,45.3,13.66,0.00,0.00
15min,AgWx,beryljct,423,25APR2019:02:45:00,47.6,12.88,45.7,46.8,48.1,50.4,45.0,78,84,74,0.869,41.7,43.4,39.6,0.548,1.5,179,31,2.5,-0.00018,-0.00025,55.7,55.4,10,0,0,45.3,13.67,0.00,0.00
15min,AgWx,beryljct,423,25APR2019:03:00:00,47.1,12.88,44.3,45.5,47.5,48.9,45.5,79,82,75,0.823,41.3,42.7,39.0,0.877,0.3,175,0.0,1.1,-0.00028,-0.00042,55.6,55.4,10,0,0,45.1,13.66,0.00,0.00
15min,AgWx,beryljct,423,25APR2019:03:15:00,46.5,12.88,43.9,43.6,44.8,46.7,43.1,83,87,79,0.795,39.8,41.6,37.7,0,1.9,208,20,3.2,-0.00016,-0.00021,55.4,55.3,10,0,0,44.0,13.67,0.01,0.00
15min,AgWx,beryljct,423,25APR2019:03:30:00,45.6,12.87,42.0,42.3,43.5,45.6,42.2,84,87,81,0.796,39.1,41.2,37.7,3.551,1.1,314,22,4.3,-0.00021,-0.00030,55.2,55.3,10,0,0,41.7,13.67,0.00,0.00
15min,AgWx,beryljct,423,25APR2019:03:45:00,44.8,12.87,43.5,43.2,42.2,43.3,40.6,88,90,86,0.822,38.8,39.9,37.0,3.771,4.5,309,9.9,5.0,-0.00008,-0.00009,55.0,55.2,10,0,0,41.3,13.67,0.00,0.00
15min,AgWx,beryljct,423,25APR2019:04:00:00,44.2,12.87,43.3,42.3,43.0,43.5,42.0,87,90,85,0.812,39.3,39.9,38.3,2.74,3.3,315,13,4.0,-0.00011,-0.00013,54.8,55.1,10,0,0,41.7,13.67,0.00,0.00
15min,AgWx,beryljct,423,25APR2019:04:15:00,43.9,12.85,46.9,45.6,44.6,46.7,42.4,85,89,80,0.868,40.3,41.9,38.7,4.297,4.3,304,10,5.2,-0.00008,-0.00008,54.7,55.1,10,0,0,43.0,13.67,0.00,0.00
15min,AgWx,beryljct,423,25APR2019:04:30:00,43.8,12.85,45.9,43.8,44.3,45.9,43.0,84,88,80,0.852,39.8,41.2,38.1,3.924,4.4,309,4.2,5.7,-0.00007,-0.00007,54.5,55.0,10,0,0,43.3,13.67,0.00,0.00
15min,AgWx,beryljct,423,25APR2019:04:45:00,43.7,12.84,44.5,43.8,44.3,45.3,42.9,85,88,83,0.851,40.1,41.3,38.4,4.209,3.9,309,7.4,4.6,-0.00009,-0.00010,54.3,54.9,10,0,0,42.9,13.67,0.00,0.00
15min,AgWx,beryljct,423,25APR2019:05:00:00,43.5,12.84,42.6,42.1,43.5,44.9,41.9,87,89,81,0.801,39.8,41.0,37.1,1.052,2.4,296,2.8,4.2,-0.00015,-0.00019,54.1,54.9,10,0,0,42.2,13.67,0.00,0.00
15min,AgWx,beryljct,423,25APR2019:05:15:00,43.1,12.84,42.0,40.8,42.0,42.7,40.8,88,91,87,0.760,38.8,39.7,37.3,3.683,2.7,319,10,4.1,-0.00014,-0.00017,53.9,54.8,10,0,0,40.6,13.67,0.00,0.00
15min,AgWx,beryljct,423,25APR2019:05:30:00,42.6,12.84,41.4,41.0,41.3,42.9,40.3,89,91,86,0.792,38.4,40.1,36.8,0,1.7,308,11,4.1,-0.00018,-0.00024,53.8,54.8,10,0,0,39.9,13.67,0.00,0.00
15min,AgWx,beryljct,423,25APR2019:05:45:00,42.2,12.83,39.1,39.6,40.6,41.3,39.6,91,92,90,0.750,38.2,38.9,37.1,1.578,0.5,299,0.0,1.6,-0.00024,-0.00037,53.6,54.7,10,0,0,39.2,13.67,0.00,0.00
15min,AgWx,beryljct,423,25APR2019:06:00:00,41.6,12.84,38.9,38.7,39.0,40.0,38.4,92,94,90,0.737,36.9,38.1,36.2,2.784,3.3,175,54,5.0,0.00005,0.00009,53.4,54.6,10,0,0,38.2,13.67,0.00,0.00
15min,AgWx,beryljct,423,25APR2019:06:15:00,41.0,12.82,38.1,38.0,38.7,39.4,38.0,92,94,90,0.703,36.6,37.8,35.5,1.535,2.7,180,0.9,3.4,0.00005,0.00008,53.3,54.5,10,0,0,37.7,13.67,0.00,0.00
15min,AgWx,beryljct,423,25APR2019:06:30:00,40.4,12.82,39.9,39.7,38.4,39.7,37.0,93,95,90,0.768,36.5,37.8,34.4,1.82,2.0,180,1.1,2.4,0.00003,0.00006,53.1,54.5,10,0,0,37.2,13.67,0.00,0.00
15min,AgWx,beryljct,423,25APR2019:06:45:00,40.2,12.81,36.6,37.0,39.4,40.3,36.9,92,94,89,0.675,37.2,38.5,34.4,1.469,1.3,178,0.1,2.2,0.00004,0.00006,52.9,54.4,10,2,0,38.1,13.67,0.00,0.00
15min,AgWx,beryljct,423,25APR2019:07:00:00,39.6,12.84,34.9,34.6,35.6,37.0,34.4,92,94,90,0.633,33.6,35.1,32.5,2.762,0.9,222,36,2.8,0.00009,0.00011,52.8,54.3,10,17,0,36.7,13.67,0.00,0.00
15min,AgWx,beryljct,423,25APR2019:07:15:00,39.0,12.84,36.4,35.9,34.9,35.9,34.3,94,95,93,0.666,33.3,34.5,32.5,2.828,2.8,320,3.4,3.6,0.00023,0.00027,52.6,54.3,10,49,0,40.1,13.67,0.00,0.00
15min,AgWx,beryljct,423,25APR2019:07:30:00,39.2,12.85,37.4,37.0,36.4,37.0,35.8,93,94,93,0.700,34.6,35.4,34.1,2.061,2.7,322,0.9,3.2,0.00037,0.00041,52.4,54.2,10,88,0,47.3,13.67,0.00,0.00
15min,AgWx,beryljct,423,25APR2019:07:45:00,40.3,12.86,40.6,40.3,38.9,40.3,37.0,94,95,93,0.792,37.4,38.5,35.4,1.425,1.8,310,4.1,2.8,0.00043,0.00047,52.3,54.1,10,89,0,51.3,13.67,0.00,0.00
15min,AgWx,beryljct,423,25APR2019:08:00:00,41.4,12.89,42.4,42.2,41.2,42.2,40.3,91,93,89,0.818,38.7,39.4,38.4,0.943,1.2,319,6.7,2.0,0.00051,0.00056,52.1,54.0,10,99,0,48.4,13.67,0.00,0.00
15min,AgWx,beryljct,423,25APR2019:08:15:00,43.2,12.84,43.7,43.6,42.8,43.7,42.1,89,91,87,0.836,39.9,40.7,39.2,2.433,1.9,5.6,12,2.8,0.00101,0.00110,52.0,54.0,10,232,52,65.0,13.67,0.00,0.00
15min,AgWx,beryljct,423,25APR2019:08:30:00,45.4,12.89,46.3,45.6,44.3,45.6,43.6,86,87,84,0.879,40.3,41.2,39.8,1.447,1.1,1.8,2.2,2.6,0.00111,0.00121,51.8,53.9,10,235,17,70.8,13.66,0.00,0.00
15min,AgWx,beryljct,423,25APR2019:08:45:00,48.2,13.05,48.6,48.2,46.9,48.2,45.6,84,85,82,0.953,42.3,43.3,41.1,0.789,0.6,0.6,1.2,2.0,0.00161,0.00174,51.7,53.8,10,333,0,75.9,13.66,0.00,0.00
15min,AgWx,beryljct,423,25APR2019:09:00:00,51.3,13.23,51.1,51.1,49.8,51.4,48.3,80,83,76,0.968,43.9,45.0,43.0,1.907,1.4,1.4,17,2.6,0.00197,0.00215,51.6,53.7,10,392,0,77.7,13.66,0.00,0.00
15min,AgWx,beryljct,423,25APR2019:09:15:00,54.4,13.52,52.9,52.8,52.0,52.8,51.1,73,77,70,0.977,43.6,44.7,42.9,1.644,1.4,0.6,10,2.7,0.00229,0.00251,51.5,53.6,10,435,0,80.2,13.66,0.00,0.00
15min,AgWx,beryljct,423,25APR2019:09:30:00,57.2,14.12,54.6,54.3,53.7,54.5,52.8,68,72,65,0.943,43.3,44.4,42.5,2.762,2.2,4.2,16,4.2,0.00262,0.00292,51.4,53.6,10,485,24,84.1,13.66,0.00,0.00
15min,AgWx,beryljct,423,25APR2019:09:45:00,59.3,14.33,56.0,55.5,54.9,55.5,54.3,67,70,65,1.010,44.1,46.0,43.2,3.573,2.9,46,18,4.8,0.00294,0.00330,51.3,53.5,10,536,0,80.8,13.66,0.00,0.00
15min,AgWx,beryljct,423,25APR2019:10:00:00,61.2,14.24,57.6,56.7,56.3,57.6,55.3,64,68,62,0.994,44.4,46.2,43.2,0.877,3.1,37,24,5.5,0.00325,0.00366,51.3,53.4,10,578,0,82.5,13.65,0.00,0.00
15min,AgWx,beryljct,423,25APR2019:10:15:00,63.2,14.27,57.8,58.1,57.6,58.5,56.6,63,67,61,1.004,45.2,47.1,43.5,4.012,2.2,50,30,6.2,0.00360,0.00399,51.2,53.3,10,628,0,88.3,13.65,0.00,0.00
15min,AgWx,beryljct,423,25APR2019:10:30:00,64.9,14.21,59.7,59.0,58.6,59.4,57.9,61,64,58,0.999,45.1,46.9,43.7,1.403,2.3,29,45,6.0,0.00391,0.00433,51.2,53.3,10,672,0,89.4,13.65,0.00,0.00
15min,AgWx,beryljct,423,25APR2019:10:45:00,66.4,14.21,60.7,60.9,60.3,61.1,59.1,59,63,56,1.103,45.7,47.9,44.3,4.099,3.1,25,36,5.9,0.00423,0.00475,51.2,53.2,10,714,0,89.2,13.65,0.00,0.00
15min,AgWx,beryljct,423,25APR2019:11:00:00,67.8,14.15,62.8,63.1,61.8,63.2,60.7,57,62,53,1.120,46.6,48.4,44.9,7.936,3.6,60,29,7.9,0.00455,0.00513,51.3,53.1,10,754,0,91.5,13.64,0.00,0.00
15min,AgWx,beryljct,423,25APR2019:11:15:00,69.0,14.13,64.3,63.8,63.2,64.4,62.2,52,57,48,1.049,45.2,47.4,43.4,3.376,3.6,35,30,7.3,0.00463,0.00527,51.4,53.1,10,734,0,91.3,13.64,0.00,0.00
15min,AgWx,beryljct,423,25APR2019:11:30:00,70.1,14.1,64.5,65.2,64.5,65.4,63.8,53,56,48,1.137,46.9,48.8,44.3,6.094,4.0,52,27,8.4,0.00507,0.00576,51.5,53.0,10,815,0,92.2,13.63,0.00,0.00
15min,AgWx,beryljct,423,25APR2019:11:45:00,71.1,13.72,65.5,66.0,65.4,66.2,64.5,48,52,45,1.024,45.4,47.4,43.5,4.823,4.4,43,29,9.3,0.00541,0.00621,51.7,53.0,10,852,0,93.0,13.63,0.00,0.00
15min,AgWx,beryljct,423,25APR2019:12:00:00,72.2,13.66,66.0,66.8,66.7,67.7,65.9,47,54,42,1.070,45.7,49.9,42.9,3.201,3.4,58,42,7.4,0.00566,0.00641,51.9,52.9,10,880,0,95.5,13.63,0.00,0.00
15min,AgWx,beryljct,423,25APR2019:12:15:00,73.4,13.64,68.3,68.5,67.7,68.6,66.6,46,52,42,1.247,46.1,50.5,43.3,3.266,2.9,71,39,8.5,0.00586,0.00658,52.1,52.9,10,904,0,99.3,13.63,0.00,0.00
15min,AgWx,beryljct,423,25APR2019:12:30:00,74.5,13.61,67.5,68.0,68.7,69.9,68.0,47,54,42,0.999,47.9,51.4,44.1,4.56,4.3,62,28,7.8,0.00606,0.00692,52.3,52.9,10,925,0,96.2,13.62,0.00,0.00
15min,AgWx,beryljct,423,25APR2019:12:45:00,75.0,13.6,68.9,68.7,68.6,69.0,68.0,46,50,41,1.033,46.9,49.4,43.3,3.573,4.1,100,22,6.0,0.00616,0.00702,52.6,52.8,10,943,0,96.5,13.62,0.00,0.00
15min,AgWx,beryljct,423,25APR2019:13:00:00,75.7,13.58,71.4,70.6,69.7,71.1,68.6,40,47,35,0.985,44.3,48.1,41.2,4.538,3.5,155,71,9.4,0.00634,0.00719,53.0,52.8,10,957,0,100.0,13.62,0.00,0.00
15min,AgWx,beryljct,423,25APR2019:13:15:00,76.4,13.54,70.5,70.8,70.5,72.1,69.6,39,48,31,0.843,43.9,49.8,39.1,1.469,2.3,106,59,7.7,0.00641,0.00716,53.3,52.9,10,966,4,101.0,13.62,0.00,0.00
15min,AgWx,beryljct,423,25APR2019:13:30:00,77.6,13.53,71.0,71.4,70.9,71.9,70.4,37,42,33,0.878,43.4,47.0,40.1,0,1.3,127,59,4.0,0.00612,0.00671,53.7,52.9,10,925,26,110.1,13.62,0.00,0.00
15min,AgWx,beryljct,423,25APR2019:13:45:00,78.2,13.54,71.3,72.2,71.5,72.3,70.9,39,49,32,0.908,45.3,51.2,40.1,0.307,2.7,143,39,7.0,0.00662,0.00741,54.1,52.9,10,985,1,100.6,13.61,0.00,0.00
15min,AgWx,beryljct,423,25APR2019:14:00:00,79.1,13.52,72.6,71.6,71.9,72.9,71.3,39,45,32,1.080,45.3,50.4,40.6,1.754,2.6,106,48,7.0,0.00643,0.00720,54.6,53.0,10,955,18,104.0,13.62,0.00,0.00
15min,AgWx,beryljct,423,25APR2019:14:15:00,79.6,13.51,71.8,72.2,72.1,72.6,71.6,39,50,32,0.884,45.9,52.1,40.5,1.425,2.1,75,27,4.6,0.00508,0.00571,55.1,53.1,10,738,0,96.4,13.61,0.00,0.00
15min,AgWx,beryljct,423,25APR2019:14:30:00,79.1,13.57,69.9,69.6,71.1,72.1,69.6,43,55,33,1.273,47.1,53.8,41.1,5.831,2.0,93,31,5.8,0.00261,0.00304,55.5,53.2,10,334,0,85.9,13.62,0.00,0.00
15min,AgWx,beryljct,423,25APR2019:14:45:00,77.3,13.56,69.1,69.2,70.1,70.8,69.2,47,57,37,1.294,48.6,53.9,43.4,3.025,2.9,116,19,8.1,0.00224,0.00273,56.0,53.2,10,264,0,79.3,13.62,0.00,0.00
15min,AgWx,beryljct,423,25APR2019:15:00:00,75.5,13.31,66.3,67.0,70.0,71.7,67.0,40,54,34,0.857,44.1,52.1,39.7,15.45,11.4,200,25,27.9,0.00287,0.00428,56.5,53.4,10,189,0,75.8,13.63,0.01,0.00
15min,AgWx,beryljct,423,25APR2019:15:15:00,72.6,13.26,62.6,64.6,66.5,67.0,64.6,38,45,36,0.937,40.2,42.9,38.7,13.92,17.5,216,11,24.3,0.00282,0.00462,56.9,53.5,10,92,0,68.0,13.63,0.00,0.00
15min,AgWx,beryljct,423,25APR2019:15:30:00,68.1,13.23,63.6,63.5,62.8,64.5,62.0,48,52,43,0.884,42.9,44.4,40.7,11.38,12.3,221,7.5,16.6,0.00173,0.00283,57.3,53.6,10,54,0,63.0,13.64,0.00,0.00
15min,AgWx,beryljct,423,25APR2019:15:45:00,66.2,13.57,64.1,64.0,63.8,64.5,63.1,46,49,43,1.000,42.3,44.6,41.0,5.722,7.8,231,21,14.8,0.00159,0.00246,57.6,53.8,10,86,0,64.8,13.64,0.00,0.00
15min,AgWx,beryljct,423,25APR2019:16:00:00,65.8,13.8,63.5,63.2,63.5,65.2,62.4,49,60,42,0.861,43.8,48.3,39.8,8,6.4,48,41,12.3,0.00212,0.00285,57.8,53.9,10,229,0,67.5,13.63,0.00,0.00
15min,AgWx,beryljct,423,25APR2019:16:15:00,65.9,13.82,64.7,64.4,63.2,64.5,62.3,47,52,41,0.863,42.6,44.9,39.8,8.11,8.4,19,24,16.5,0.00232,0.00324,57.9,54.1,10,239,0,68.2,13.64,0.01,0.00
15min,AgWx,beryljct,423,25APR2019:16:30:00,66.6,13.78,67.0,67.4,65.9,67.7,64.4,42,47,39,0.960,42.0,44.3,40.6,7.519,7.6,7.0,20,12.4,0.00301,0.00401,57.9,54.2,10,378,0,72.5,13.64,0.00,0.00
15min,AgWx,beryljct,423,25APR2019:16:45:00,68.5,13.68,67.9,68.1,67.2,68.1,66.2,44,49,40,1.026,44.6,47.3,42.4,3.332,5.0,57,14,7.6,0.00373,0.00453,58.0,54.3,10,572,0,77.8,13.64,0.00,0.00
15min,AgWx,beryljct,423,25APR2019:17:00:00,71.0,13.6,66.1,66.6,68.1,68.6,66.5,44,48,40,0.991,45.4,48.2,43.2,11.22,6.6,72,22,11.8,0.00371,0.00466,58.0,54.5,10,541,0,79.4,13.64,0.00,0.00
15min,AgWx,beryljct,423,25APR2019:17:15:00,71.0,13.72,65.9,66.0,65.9,66.5,65.5,46,49,43,1.011,44.4,46.1,42.9,9.05,10.1,39,12,13.7,0.00253,0.00364,58.0,54.6,10,272,0,71.6,13.64,0.01,0.00
15min,AgWx,beryljct,423,25APR2019:17:30:00,70.6,13.67,65.6,65.6,66.5,67.4,65.6,47,50,44,0.998,45.8,46.9,44.4,19.6,11.7,50,11,19.6,0.00285,0.00406,58.1,54.7,10,353,0,72.5,13.64,0.00,0.00
15min,AgWx,beryljct,423,25APR2019:17:45:00,69.5,13.33,65.2,65.1,64.9,65.6,64.4,48,50,46,1.017,44.8,45.4,44.1,13.11,12.3,58,11,17.1,0.00205,0.00322,58.2,54.8,10,132,0,67.6,13.64,0.00,0.00
15min,AgWx,beryljct,423,25APR2019:18:00:00,68.3,13.77,64.3,64.2,64.7,65.2,64.2,47,48,44,0.966,43.8,45.0,42.9,12.56,12.9,52,11,17.5,0.00204,0.00326,58.2,54.9,10,129,0,66.7,13.64,0.00,0.00
15min,AgWx,beryljct,423,25APR2019:18:15:00,67.3,13.33,63.2,63.4,63.8,64.2,63.4,48,50,47,0.948,43.6,44.6,42.8,8.55,12.3,59,9.7,18.1,0.00181,0.00295,58.3,55.0,10,124,0,66.1,13.64,0.00,0.00
15min,AgWx,beryljct,423,25APR2019:18:30:00,66.3,13.18,63.1,63.3,63.2,63.6,62.9,47,50,45,0.896,42.9,43.8,41.7,13.44,10.5,46,14,18.5,0.00148,0.00248,58.3,55.0,10,51,0,64.4,13.65,0.00,0.00
15min,AgWx,beryljct,423,25APR2019:18:45:00,65.5,13.14,61.3,62.0,62.9,63.3,62.0,47,53,45,0.997,42.6,44.6,41.7,10.68,10.8,35,13,15.8,0.00131,0.00232,58.3,55.1,11,59,16,63.5,13.65,0.00,0.00
15min,AgWx,beryljct,423,25APR2019:19:00:00,63.7,13.42,60.7,60.9,61.1,62.0,60.7,60,67,53,1.212,47.3,49.8,44.7,8.92,10.9,50,8.7,16.4,0.00216,0.00297,58.3,55.2,10,334,100,64.0,13.66,0.01,0.01
15min,AgWx,beryljct,423,25APR2019:19:15:00,62.4,12.98,58.2,58.6,59.7,60.8,58.6,68,71,64,1.130,49.1,51.0,47.8,12.06,11.5,22,20,17.8,0.00107,0.00169,58.3,55.3,10,145,100,64.5,13.67,0.01,0.00
15min,AgWx,beryljct,423,25APR2019:19:30:00,61.4,13.12,57.5,57.9,58.0,58.6,57.7,66,69,65,1.086,47.0,48.2,46.3,7.497,12.0,33,8.7,19.2,0.00044,0.00053,58.2,55.3,10,47,16,59.9,13.67,0.00,0.00
15min,AgWx,beryljct,423,25APR2019:19:45:00,60.6,13.09,57.9,57.7,57.6,58.0,57.4,69,71,66,1.097,47.4,48.2,46.8,5.546,7.9,17,16,13.9,0.00028,0.00036,58.2,55.4,11,15,0,57.2,13.67,0.00,0.00
15min,AgWx,beryljct,423,25APR2019:20:00:00,59.7,13.06,56.9,57.5,57.7,57.9,57.5,67,69,66,1.111,46.9,47.4,46.4,2.784,5.6,2.7,9.9,9.1,0.00020,0.00028,58.2,55.4,10,4,14,56.1,13.67,0.00,0.00
15min,AgWx,beryljct,423,25APR2019:20:15:00,58.8,13.01,54.7,55.3,56.5,57.3,55.3,72,77,69,1.150,47.5,48.3,47.0,6.423,5.9,351,18,9.3,0.00015,0.00022,58.1,55.5,10,1,38,56.5,13.68,0.01,0.00
15min,AgWx,beryljct,423,25APR2019:20:30:00,57.9,12.85,53.6,54.0,54.4,55.3,54.0,81,82,78,1.169,48.6,48.8,48.0,8.09,8.2,31,15,12.1,0.00012,0.00016,58.0,55.5,10,0,100,59.9,13.69,0.02,0.01
15min,AgWx,beryljct,423,25APR2019:20:45:00,57.0,12.95,53.8,53.8,53.8,53.9,53.6,84,85,83,1.174,48.9,49.1,48.7,8.44,11.0,58,11,14.5,0.00012,0.00015,57.9,55.5,10,0,100,59.4,13.70,0.01,0.01
15min,AgWx,beryljct,423,25APR2019:21:00:00,56.4,12.84,53.2,53.2,53.5,53.8,53.1,86,88,83,1.203,49.3,49.7,48.8,11.51,7.3,65,16,14.0,0.00005,0.00008,57.8,55.6,10,0,100,60.7,13.71,0.01,0.00
15min,AgWx,beryljct,423,25APR2019:21:15:00,55.7,12.97,52.5,52.6,53.0,53.3,52.6,86,88,85,1.159,49.1,49.6,48.4,13.42,12.4,55,10,17.1,0.00010,0.00012,57.7,55.6,10,0,77,57.4,13.72,0.01,0.01
15min,AgWx,beryljct,423,25APR2019:21:30:00,54.9,12.97,52.6,52.5,52.4,52.6,52.2,87,88,86,1.170,48.7,48.9,48.5,11.22,11.2,53,11,16.7,0.00008,0.00010,57.6,55.6,10,0,0,51.4,13.71,0.00,0.00
15min,AgWx,beryljct,423,25APR2019:21:45:00,54.5,12.97,51.3,51.5,51.9,52.5,51.5,85,87,84,1.091,47.5,48.6,46.9,5.502,8.5,46,10,13.0,0.00007,0.00010,57.5,55.6,10,0,0,50.8,13.72,0.01,0.00
15min,AgWx,beryljct,423,25APR2019:22:00:00,53.9,12.95,52.0,51.6,51.4,51.9,50.9,85,86,83,1.112,46.9,47.4,46.6,4.45,4.7,26,20,8.1,0.00001,0.00002,57.4,55.6,10,0,0,50.3,13.71,0.00,0.00
15min,AgWx,beryljct,423,25APR2019:22:15:00,53.6,12.96,52.2,51.9,51.4,52.0,51.0,87,88,85,1.121,47.6,47.9,47.3,6.62,4.1,78,13,10.1,-0.00002,-0.00001,57.3,55.6,10,0,0,50.6,13.71,0.00,0.00
15min,AgWx,beryljct,423,25APR2019:22:30:00,53.5,12.94,52.5,52.4,52.1,52.4,51.8,84,85,82,1.093,47.4,47.8,46.9,7.212,6.9,83,9.5,10.9,0.00006,0.00008,57.2,55.6,10,0,0,51.1,13.72,0.00,0.00
15min,AgWx,beryljct,423,25APR2019:22:45:00,53.3,12.94,52.0,52.1,52.2,52.5,51.8,82,83,81,1.075,46.7,46.9,46.4,3.617,4.1,69,14,7.2,0.00001,0.00003,57.0,55.6,10,0,0,50.6,13.71,0.00,0.00
15min,AgWx,beryljct,423,25APR2019:23:00:00,53.1,12.94,50.4,50.4,51.5,52.2,50.4,83,85,81,1.064,46.4,46.7,46.1,3.288,2.8,170,66,4.5,-0.00004,-0.00003,56.9,55.6,10,0,0,49.9,13.71,0.00,0.00
15min,AgWx,beryljct,423,25APR2019:23:15:00,52.5,12.92,50.6,51.1,50.4,51.1,50.0,86,87,83,1.062,46.3,46.6,45.8,4.297,3.9,268,13,5.6,-0.00002,-0.00001,56.8,55.6,10,0,0,48.9,13.72,0.00,0.00
15min,AgWx,beryljct,423,25APR2019:23:30:00,51.8,12.91,48.4,48.4,49.0,50.9,48.2,89,92,83,1.065,45.8,46.4,45.1,6.05,5.4,284,13,7.1,-0.00001,0.00000,56.6,55.6,10,0,0,48.0,13.71,0.00,0.00
15min,AgWx,beryljct,423,25APR2019:23:45:00,51.1,12.92,49.1,48.7,48.3,48.7,47.9,93,94,92,1.082,46.3,46.7,45.9,4.735,3.8,268,9.9,6.1,-0.00006,-0.00007,56.5,55.6,10,0,0,47.4,13.72,0.00,0.00
15min,AgWx,beryljct,423,26APR2019:00:00:00,50.7,12.89,49.1,48.8,48.7,49.0,48.5,92,93,91,1.086,46.6,46.8,46.3,6.577,3.4,300,16,6.9,-0.00007,-0.00008,56.4,55.5,10,0,0,47.9,13.71,0.00,0.00
15min,AgWx,beryljct,423,26APR2019:00:15:00,50.6,12.89,49.3,49.2,49.0,49.2,48.5,93,94,92,1.107,47.0,47.4,46.4,6.555,5.8,309,6.5,8.6,-0.00003,-0.00003,56.3,55.5,10,0,0,48.5,13.71,0.00,0.00
15min,AgWx,beryljct,423,26APR2019:00:30:00,50.6,12.89,49.1,49.1,49.2,49.3,49.1,92,93,92,1.091,47.0,47.2,46.9,4.801,5.1,306,7.7,6.6,-0.00004,-0.00004,56.1,55.5,10,0,0,48.5,13.71,0.00,0.00
15min,AgWx,bigpiney,439,25APR2019:00:00:00,44.2,12.73,40.0,39.9,40.3,40.6,39.9,77,79,76,0.652,33.8,34.1,33.6,7.081,8.8,309,8.6,11.0,0.00006,0.00008,41.5,33.7,52,0,0,0.0,1.20,0.00,0.00
15min,AgWx,bigpiney,439,25APR2019:00:15:00,43.9,12.73,41.4,40.9,40.3,41.0,39.8,76,79,73,0.634,33.4,33.7,32.9,10.57,9.3,314,9.0,12.8,0.00007,0.00010,41.3,33.7,52,0,0,0.0,1.20,0.00,0.00
15min,AgWx,bigpiney,439,25APR2019:00:30:00,43.6,12.72,40.0,39.8,40.3,40.9,39.8,74,75,73,0.618,32.6,33.0,32.3,9.03,9.6,310,7.4,14.1,0.00009,0.00012,41.2,33.8,52,0,0,0.0,1.20,0.00,0.00
15min,AgWx,bigpiney,439,25APR2019:00:45:00,43.3,12.72,39.2,39.0,39.3,39.8,38.9,76,76,74,0.609,32.3,32.5,32.0,5.48,7.0,322,8.2,11.9,0.00003,0.00006,41.0,33.7,52,0,0,0.0,1.20,0.00,0.00
15min,AgWx,bigpiney,439,25APR2019:01:00:00,42.9,12.71,37.7,37.6,38.3,39.1,37.6,77,78,75,0.599,31.8,32.0,31.5,4.516,5.6,322,14,7.6,-0.00000,0.00001,40.8,33.7,52,0,0,0.0,1.20,0.00,0.00
15min,AgWx,bigpiney,439,25APR2019:01:15:00,42.3,12.7,39.7,39.2,38.0,39.4,37.1,79,82,75,0.613,32.0,32.6,31.5,2.105,5.0,244,22,9.0,-0.00003,-0.00002,40.7,33.7,52,0,0,0.0,1.20,0.00,0.00
15min,AgWx,bigpiney,439,25APR2019:01:30:00,41.9,12.68,40.6,40.2,39.6,40.2,39.2,74,77,72,0.609,32.1,32.5,31.7,4.801,4.4,237,21,7.5,-0.00002,-0.00001,40.5,33.7,52,0,0,0.0,1.20,0.00,0.00
15min,AgWx,bigpiney,439,25APR2019:01:45:00,41.6,12.68,35.2,34.6,37.7,40.4,34.6,75,80,70,0.541,30.4,32.0,28.9,2.872,2.9,131,47,5.3,-0.00008,-0.00008,40.3,33.7,52,0,0,0.0,1.20,0.00,0.00
15min,AgWx,bigpiney,439,25APR2019:02:00:00,41.0,12.66,39.4,37.5,36.7,37.6,34.6,77,81,74,0.578,30.2,30.8,29.0,0.899,1.7,69,36,4.7,-0.00014,-0.00018,40.1,33.7,52,0,0,0.0,1.20,0.00,0.00
15min,AgWx,bigpiney,439,25APR2019:02:15:00,40.3,12.66,35.1,36.2,37.7,38.4,36.2,74,79,72,0.547,30.1,31.2,29.2,3.836,3.2,344,27,4.8,-0.00007,-0.00007,39.9,33.7,52,0,0,0.0,1.20,0.00,0.00
15min,AgWx,bigpiney,439,25APR2019:02:30:00,39.7,12.65,33.9,33.9,34.7,36.1,33.9,82,84,76,0.554,29.6,29.9,29.1,5.897,4.9,233,38,7.2,-0.00004,-0.00004,39.8,33.6,52,0,0,0.0,1.20,0.00,0.00
15min,AgWx,bigpiney,439,25APR2019:02:45:00,39.1,12.64,36.4,36.4,35.8,37.4,33.9,79,84,73,0.574,29.8,30.5,29.2,1.841,4.5,232,26,7.9,-0.00004,-0.00003,39.6,33.7,52,0,0,0.0,1.20,0.00,0.00
15min,AgWx,bigpiney,439,25APR2019:03:00:00,38.8,12.62,34.7,34.2,36.5,38.0,33.8,74,81,70,0.543,29.0,30.5,27.5,2.105,3.4,259,37,5.5,-0.00006,-0.00006,39.4,33.5,52,0,0,0.0,1.20,0.00,0.00
15min,AgWx,bigpiney,439,25APR2019:03:15:00,38.3,12.63,34.4,33.7,33.5,34.3,33.0,84,88,80,0.570,29.3,30.3,28.3,5.042,4.7,219,12,5.5,-0.00006,-0.00006,39.2,33.6,52,0,0,0.0,1.20,0.00,0.00
15min,AgWx,bigpiney,439,25APR2019:03:30:00,37.8,12.62,34.8,34.4,34.3,34.8,33.8,88,89,87,0.592,31.1,31.6,30.4,4.604,3.7,246,4.6,5.7,-0.00009,-0.00011,39.1,33.6,52,0,0,0.0,1.20,0.00,0.00
15min,AgWx,bigpiney,439,25APR2019:03:45:00,37.5,12.61,35.3,34.8,34.5,34.8,34.3,87,88,87,0.592,31.2,31.5,30.8,3.113,2.7,249,5.0,4.7,-0.00012,-0.00015,38.9,33.5,52,0,0,0.0,1.20,0.00,0.00
15min,AgWx,bigpiney,439,25APR2019:04:00:00,37.1,12.6,30.6,30.5,32.5,34.8,30.5,87,88,86,0.504,28.9,31.2,27.3,3.223,2.4,254,29,3.7,-0.00012,-0.00015,38.7,33.5,52,0,0,0.0,1.20,0.00,0.00
15min,AgWx,bigpiney,439,25APR2019:04:15:00,36.5,12.59,31.2,31.4,31.1,32.0,30.5,89,91,88,0.533,28.3,29.5,27.3,2.105,3.4,246,26,5.8,-0.00010,-0.00011,38.6,33.5,52,0,0,0.0,1.20,0.00,0.00
15min,AgWx,bigpiney,439,25APR2019:04:30:00,35.9,12.58,34.0,33.1,31.7,33.1,30.7,90,91,89,0.577,29.0,30.6,27.7,2.85,1.8,262,22,3.2,-0.00015,-0.00020,38.4,33.5,52,0,0,0.0,1.20,0.00,0.00
15min,AgWx,bigpiney,439,25APR2019:04:45:00,35.6,12.57,29.4,29.1,31.8,33.9,29.0,88,90,84,0.486,28.7,31.0,25.9,2.368,2.7,232,17,4.1,-0.00011,-0.00014,38.2,33.5,52,0,0,0.0,1.20,0.00,0.00
15min,AgWx,bigpiney,439,25APR2019:05:00:00,35.0,12.56,30.8,30.6,30.0,30.8,29.0,91,92,90,0.528,27.8,28.8,26.3,2.302,2.1,238,18,3.1,-0.00013,-0.00017,38.1,33.5,52,0,1,0.0,1.20,0.00,0.00
15min,AgWx,bigpiney,439,25APR2019:05:15:00,34.5,12.55,30.0,29.0,29.0,30.5,27.9,91,92,90,0.499,26.6,28.4,25.4,1.754,2.6,216,13,3.9,-0.00012,-0.00014,37.9,33.5,52,0,1,0.0,1.20,0.00,0.00
15min,AgWx,bigpiney,439,25APR2019:05:30:00,34.0,12.54,30.3,30.0,29.6,30.1,29.0,92,93,92,0.515,27.6,28.0,27.1,1.228,2.6,235,3.6,4.5,-0.00012,-0.00015,37.7,33.5,52,0,1,0.0,1.20,0.00,0.00
15min,AgWx,bigpiney,439,25APR2019:05:45:00,33.5,12.53,28.6,28.1,28.6,30.1,27.4,91,92,90,0.478,26.2,27.9,24.9,2.981,2.5,214,12,4.2,-0.00012,-0.00014,37.6,33.4,52,0,1,0.0,1.20,0.00,0.00
15min,AgWx,bigpiney,439,25APR2019:06:00:00,33.0,12.52,31.5,30.5,29.7,30.6,28.1,92,94,91,0.529,27.6,29.0,26.1,0,2.2,237,13,3.6,-0.00013,-0.00017,37.4,33.4,52,0,1,0.0,1.20,0.00,0.00
15min,AgWx,bigpiney,439,25APR2019:06:15:00,32.8,12.51,27.6,28.1,29.9,30.8,28.1,91,92,89,0.462,27.5,28.7,25.2,2.959,0.7,148,61,3.4,-0.00019,-0.00027,37.3,33.4,52,1,1,0.0,1.20,0.00,0.00
15min,AgWx,bigpiney,439,25APR2019:06:30:00,32.4,12.52,29.0,28.3,27.5,28.3,27.0,90,92,88,0.481,25.0,26.2,24.3,0.044,1.3,223,15,3.8,-0.00014,-0.00019,37.1,33.3,52,5,1,0.0,1.20,0.00,0.00
15min,AgWx,bigpiney,439,25APR2019:06:45:00,32.1,12.54,28.0,27.8,28.6,29.0,27.4,91,92,88,0.465,26.2,26.7,24.2,1.82,1.2,50,52,3.3,-0.00028,-0.00028,36.9,33.3,52,24,0,0.0,1.20,0.00,0.00